Volver al catálogo

SL-8 R/B

ActivoPO
NORAD 18986·ROCKET BODY·🇷🇺 Russia

Lanzado Mar 22, 1988 desde Plesetsk Cosmodrome

Loading…

Próximos Pases (próximas 24 horas)

TLE

ActualizadoSource: Space-Track

Época: Sep 14, 2026, 20:13 UTC

1 18986U 88023B   26257.84250139  .00000144  00000-0  12511-3 0  9999
2 18986  82.9527  50.7876 0042948  96.3663 264.2389 13.78950349935640

Sigue SL-8 R/B en tiempo real con AllMySat

Download on the App Store